This is the latest recevied weather packets stored in our database for station/object KB0BS-13. If no packets are shown the sender has not sent any weather packets the latest 10 day(s).
| Time | Temp. | Humidity | Pressure | Rain* | Wind** | Luminosity | Snow |
|---|---|---|---|---|---|---|---|
| 1777685510 | 1.11° C | 77% | 1018.6 hPa | 0 mm | - | 0 W/m² | - |
| 1777685207 | 1.11° C | 76% | 1018.5 hPa | 0 mm | - | 0 W/m² | - |
| 1777684906 | 1.67° C | 75% | 1018.4 hPa | 0 mm | - | 0 W/m² | - |
| 1777684602 | 1.67° C | 74% | 1018.6 hPa | 0 mm | - | 0 W/m² | - |
| 1777684297 | 2.22° C | 73% | 1018.2 hPa | 0 mm | - | 0 W/m² | - |
| 1777683996 | 2.22° C | 73% | 1018.2 hPa | 0 mm | - | 0 W/m² | - |
| 1777683692 | 2.22° C | 72% | 1018.2 hPa | 0 mm | - | 1 W/m² | - |
| 1777683389 | 2.22° C | 71% | 1018.2 hPa | 0 mm | - | 1 W/m² | - |
| 1777683087 | 2.22° C | 71% | 1018 hPa | 0 mm | - | 2 W/m² | - |
| 1777682782 | 2.78° C | 69% | 1018.3 hPa | 0 mm | - | 3 W/m² | - |
| 1777682479 | 2.78° C | 68% | 1017.9 hPa | 0 mm | - | 4 W/m² | - |
| 1777682178 | 2.78° C | 67% | 1018 hPa | 0 mm | - | 6 W/m² | - |
| 1777681874 | 2.78° C | 67% | 1018 hPa | 0 mm | - | 9 W/m² | - |
| 1777681570 | 3.33° C | 66% | 1017.7 hPa | 0 mm | - | 12 W/m² | - |
| 1777681268 | 3.33° C | 66% | 1017.9 hPa | 0 mm | - | 16 W/m² | - |
| 1777680966 | 3.33° C | 65% | 1017.8 hPa | 0 mm | - | 21 W/m² | - |
| 1777680662 | 3.89° C | 63% | 1017.7 hPa | 0 mm | - | 27 W/m² | - |
| 1777680361 | 3.89° C | 63% | 1017.9 hPa | 0 mm | - | 34 W/m² | - |
| 1777680057 | 3.89° C | 63% | 1017.7 hPa | 0 mm | - | 42 W/m² | - |
| 1777679753 | 3.89° C | 61% | 1017.7 hPa | 0 mm | - | 52 W/m² | - |
| 1777679449 | 3.89° C | 62% | 1017.5 hPa | 0 mm | - | 59 W/m² | - |
| 1777679145 | 3.89° C | 61% | 1017.6 hPa | 0 mm | - | 66 W/m² | - |
| 1777678843 | 3.89° C | 62% | 1017.8 hPa | 0 mm | - | 72 W/m² | - |
| 1777678541 | 3.89° C | 60% | 1017.6 hPa | 0 mm | - | 83 W/m² | - |
| 1777678237 | 4.44° C | 62% | 1017.5 hPa | 0 mm | - | 98 W/m² | - |
* Rain latest hour (hover to see other rain measurements)
** Current wind speed in m/s (hover to see current wind gust speed)